QPF
0.00 0.00 0.00 0.00 0.00 0.00 0.00 0.00 0.00 0.00 0.00 0.00 0.00 0.00 0.00 0.00 0.00 0.00 0.03 0.06 0.06 0.06 0.03 0.01 0.00 0.00 0.00 0.00 0.00 0.00 0.00 0.00 0.00 0.00 0.00 0.00 0.00 0.00 0.00 0.00 0.00 0.00 0.00
0.00 0.00 0.00 0.00 0.00 0.00 0.00 0.00 0.00 0.00 0.00 0.00 0.00 0.00 0.00 0.00 0.00 0.00 0.02 0.03 0.08 0.06 0.02 0.00 0.00 0.00 0.00 0.00 0.00 0.00 0.00 0.00 0.00 0.00 0.00 0.00 0.00 0.00 0.00 0.00 0.00 0.00 0.00
0.00 0.00 0.00 0.00 0.00 0.00 0.00 0.00 0.00 0.00 0.00 0.00 0.00 0.00 0.00 0.00 0.00 0.02 0.09 0.08 0.05 0.02 0.00 0.00 0.00 0.00 0.00 0.00 0.00 0.00 0.00 0.00 0.00 0.00 0.00 0.00 0.00 0.00 0.00 0.00 0.00 0.00 0.00
0.00 0.00 0.00 0.00 0.00 0.00 0.00 0.00 0.00 0.00 0.00 0.00 0.00 0.00 0.00 0.00 0.00 0.02 0.04 0.02 0.01 0.00 0.00 0.00 0.00 0.00 0.00 0.00 0.00 0.00 0.00 0.00 0.00 0.00 0.00 0.00 0.00 0.00 0.00 0.00 0.00 0.00 0.00
0.00 0.00 0.00 0.00 0.00 0.00 0.00 0.00 0.00 0.00 0.00 0.00 0.00 0.00 0.00 0.00 0.00 0.01 0.01 0.01 0.03 0.02 0.01 0.00 0.00 0.00 0.00 0.00 0.00 0.00 0.00 0.00 0.00 0.00 0.00 0.00 0.00 0.00 0.00 0.00 0.00 0.00 0.00
0.00 0.00 0.00 0.00 0.00 0.00 0.00 0.00 0.00 0.00 0.00 0.00 0.00 0.00 0.01 0.01 0.01 0.01 0.01 0.02 0.01 0.01 0.01 0.01 0.00 0.00 0.00 0.00 0.00 0.00 0.00 0.00 0.01 0.00 0.00 0.00 0.00 0.00 0.00 0.00 0.00 0.00 0.00
0.00 0.00 0.00 0.00 0.00 0.00 0.00 0.00 0.00 0.00 0.00 0.00 0.00 0.02 0.05 0.03 0.01 0.01 0.01 0.01 0.01 0.01 0.01 0.01 0.00 0.00 0.00 0.00 0.00 0.00 0.01 0.02 0.01 0.00 0.00 0.00 0.00 0.00 0.00 0.00 0.00 0.00 0.00
0.00 0.00 0.00 0.00 0.00 0.00 0.00 0.00 0.00 0.00 0.00 0.00 0.01 0.08 0.08 0.03 0.02 0.01 0.02 0.02 0.01 0.02 0.02 0.00 0.00 0.00 0.00 0.00 0.00 0.00 0.01 0.00 0.00 0.00 0.00 0.00 0.00 0.00 0.00 0.00 0.00 0.00 0.00
0.00 0.00 0.00 0.00 0.00 0.00 0.00 0.00 0.00 0.00 0.00 0.00 0.01 0.08 0.10 0.04 0.03 0.03 0.03 0.03 0.04 0.04 0.02 0.00 0.00 0.00 0.00 0.01 0.02 0.02 0.01 0.00 0.00 0.00 0.00 0.00 0.00 0.00 0.00 0.00 0.00 0.00 0.00
0.00 0.00 0.00 0.00 0.00 0.00 0.00 0.00 0.00 0.00 0.00 0.00 0.01 0.06 0.10 0.08 0.05 0.04 0.04 0.03 0.03 0.02 0.01 0.00 0.00 0.00 0.01 0.03 0.02 0.02 0.01 0.00 0.00 0.00 0.00 0.00 0.00 0.00 0.00 0.00 0.00 0.00 0.00
0.00 0.00 0.00 0.00 0.00 0.00 0.00 0.00 0.00 0.00 0.00 0.00 0.00 0.01 0.04 0.05 0.05 0.04 0.03 0.03 0.02 0.02 0.04 0.02 0.04 0.06 0.07 0.06 0.02 0.02 0.03 0.02 0.00 0.00 0.00 0.00 0.00 0.00 0.00 0.00 0.00 0.00 0.00
0.00 0.00 0.00 0.00 0.00 0.00 0.00 0.00 0.00 0.00 0.00 0.00 0.00 0.01 0.04 0.05 0.05 0.05 0.03 0.02 0.01 0.04 0.09 0.18 0.15 0.03 0.03 0.04 0.05 0.06 0.02 0.00 0.00 0.00 0.00 0.00 0.00 0.00 0.00 0.00 0.00 0.00 0.00
0.00 0.00 0.00 0.00 0.00 0.00 0.00 0.00 0.00 0.00 0.00 0.00 0.01 0.01 0.03 0.04 0.04 0.04 0.05 0.14 0.32 0.49 0.41 0.22 0.09 0.03 0.04 0.06 0.06 0.03 0.00 0.00 0.00 0.00 0.00 0.00 0.00 0.00 0.00 0.00 0.00 0.00 0.00
0.00 0.00 0.00 0.00 0.00 0.00 0.00 0.00 0.00 0.00 0.00 0.00 0.01 0.02 0.03 0.02 0.03 0.04 0.08 0.13 0.13 0.09 0.04 0.01 0.03 0.09 0.10 0.06 0.02 0.00 0.00 0.00 0.00 0.00 0.00 0.00 0.00 0.00 0.00 0.00 0.00 0.00 0.00
0.00 0.00 0.00 0.00 0.00 0.00 0.00 0.00 0.01 0.01 0.02 0.01 0.01 0.01 0.00 0.00 0.00 0.00 0.01 0.01 0.00 0.00 0.00 0.02 0.04 0.04 0.05 0.03 0.01 0.00 0.00 0.00 0.00 0.00 0.00 0.00 0.00 0.00 0.00 0.00 0.00 0.00 0.00
0.00 0.00 0.00 0.00 0.00 0.00 0.00 0.02 0.03 0.05 0.04 0.01 0.01 0.00 0.00 0.00 0.00 0.00 0.00 0.00 0.00 0.00 0.00 0.02 0.05 0.05 0.04 0.02 0.01 0.00 0.00 0.00 0.00 0.00 0.00 0.00 0.00 0.00 0.00 0.00 0.00 0.00 0.00
0.00 0.00 0.00 0.00 0.00 0.00 0.00 0.00 0.00 0.00 0.00 0.00 0.00 0.00 0.00 0.00 0.00 0.00 0.00 0.00 0.00 0.00 0.03 0.06 0.05 0.02 0.01 0.01 0.00 0.00 0.00 0.00 0.00 0.00 0.00 0.00 0.00 0.00 0.00 0.00 0.00 0.00 0.00
0.00 0.00 0.00 0.00 0.00 0.00 0.00 0.00 0.00 0.00 0.00 0.00 0.00 0.00 0.00 0.00 0.00 0.00 0.00 0.00 0.01 0.02 0.03 0.02 0.01 0.00 0.00 0.00 0.00 0.00 0.00 0.00 0.00 0.00 0.00 0.00 0.00 0.00 0.00 0.00 0.00 0.00 0.00
0.00 0.00 0.00 0.00 0.00 0.00 0.00 0.00 0.00 0.00 0.00 0.00 0.00 0.00 0.00 0.00 0.00 0.00 0.01 0.01 0.01 0.00 0.00 0.00 0.00 0.00 0.00 0.00 0.00 0.00 0.00 0.00 0.00 0.00 0.00 0.00 0.00 0.00 0.00 0.00 0.00 0.00 0.00
0.00 0.00 0.00 0.00 0.00 0.00 0.00 0.00 0.00 0.00 0.00 0.00 0.00 0.00 0.00 0.00 0.00 0.01 0.00 0.00 0.00 0.00 0.00 0.00 0.00 0.00 0.00 0.00 0.00 0.00 0.00 0.00 0.00 0.00 0.00 0.00 0.00 0.00 0.00 0.00 0.00 0.00 0.00
0.00 0.00 0.00 0.00 0.00 0.00 0.00 0.00 0.00 0.00 0.00 0.00 0.00 0.00 0.00 0.00 0.00 0.00 0.00 0.00 0.00 0.00 0.00 0.00 0.00 0.00 0.00 0.00 0.00 0.00 0.00 0.00 0.00 0.00 0.00 0.00 0.00 0.00 0.00 0.00 0.01 0.00 0.00
0.00 0.00 0.00 0.00 0.00 0.00 0.00 0.00 0.00 0.00 0.00 0.00 0.00 0.00 0.00 0.00 0.00 0.00 0.00 0.00 0.00 0.00 0.00 0.00 0.00 0.00 0.00 0.00 0.00 0.00 0.00 0.00 0.00 0.00 0.00 0.00 0.00 0.00 0.00 0.00 0.00 0.00 0.00
0.00 0.00 0.00 0.00 0.00 0.00 0.00 0.00 0.00 0.00 0.00 0.00 0.00 0.00 0.00 0.00 0.00 0.00 0.00 0.00 0.00 0.00 0.00 0.00 0.00 0.00 0.00 0.00 0.00 0.00 0.00 0.00 0.00 0.00 0.01 0.00 0.00 0.01 0.01 0.01 0.00 0.01 0.03
0.00 0.00 0.00 0.00 0.00 0.00 0.00 0.00 0.00 0.00 0.00 0.00 0.00 0.00 0.00 0.00 0.00 0.00 0.00 0.00 0.00 0.00 0.00 0.00 0.00 0.00 0.00 0.00 0.00 0.00 0.00 0.00 0.00 0.00 0.00 0.01 0.01 0.02 0.03 0.04 0.06 0.08 0.09
0.00 0.00 0.00 0.00 0.00 0.00 0.00 0.00 0.00 0.00 0.00 0.00 0.00 0.00 0.00 0.00 0.00 0.00 0.00 0.00 0.00 0.00 0.00 0.00 0.00 0.00 0.00 0.00 0.00 0.00 0.00 0.00 0.00 0.01 0.01 0.01 0.01 0.02 0.02 0.03 0.05 0.04 0.03
0.00 0.00 0.00 0.00 0.00 0.00 0.00 0.00 0.00 0.00 0.00 0.00 0.00 0.00 0.00 0.00 0.00 0.00 0.00 0.00 0.00 0.00 0.00 0.00 0.00 0.00 0.00 0.00 0.00 0.00 0.00 0.00 0.00 0.01 0.01 0.02 0.02 0.02 0.03 0.05 0.04 0.02 0.01
MSLP
1012.48 1013.26 1014.01 1014.56 1015.03 1015.58 1016.20 1016.69 1017.20 1017.84 1018.52 1018.89 1019.04 1019.51 1019.65 1020.15 1020.30 1020.46 1021.35 1021.73 1022.13 1022.72 1022.95 1023.16 1023.76 1024.01 1024.06 1024.48 1024.54 1024.92 1025.34 1025.54 1025.83 1025.60 1025.18 1025.48 1026.08 1026.28 1026.09 1026.24 1026.17 1026.26 1026.57
1011.67 1012.58 1013.45 1014.08 1014.50 1014.88 1015.50 1016.05 1016.46 1017.03 1017.65 1017.82 1018.19 1018.77 1019.16 1019.62 1019.84 1020.44 1020.80 1021.39 1022.01 1022.35 1022.51 1022.77 1023.33 1023.83 1023.88 1024.19 1024.50 1024.80 1024.94 1025.25 1025.77 1025.62 1025.64 1024.61 1024.84 1025.70 1026.02 1025.90 1025.97 1026.15 1026.26
1010.45 1011.48 1012.59 1013.33 1013.93 1014.20 1014.79 1015.40 1015.92 1016.39 1017.07 1017.41 1018.01 1018.54 1018.94 1019.36 1019.50 1019.95 1020.76 1021.26 1021.79 1021.91 1022.14 1022.64 1023.13 1023.64 1023.41 1023.91 1024.29 1024.60 1024.68 1024.85 1025.80 1026.31 1026.11 1024.81 1024.31 1024.60 1024.43 1025.42 1025.74 1025.96 1026.20
1009.44 1010.05 1011.23 1012.16 1012.88 1013.60 1014.32 1014.90 1015.42 1015.96 1016.57 1016.98 1017.17 1017.81 1017.96 1018.22 1018.56 1019.28 1020.38 1020.68 1021.54 1021.66 1021.77 1022.58 1022.90 1023.17 1023.22 1023.39 1023.89 1024.21 1024.55 1024.99 1025.52 1026.32 1026.43 1026.31 1025.72 1024.99 1024.11 1024.27 1025.08 1026.02 1026.19
1008.34 1008.88 1009.63 1010.76 1011.84 1012.77 1013.53 1014.35 1014.87 1015.38 1015.97 1016.55 1016.90 1017.30 1017.38 1017.47 1017.96 1019.28 1020.10 1020.66 1021.08 1021.50 1021.99 1022.40 1022.79 1022.92 1022.83 1023.22 1023.53 1024.20 1024.65 1025.56 1026.36 1026.75 1026.25 1026.10 1025.78 1025.68 1025.33 1024.32 1024.16 1024.67 1025.05
1007.41 1007.93 1008.73 1009.76 1010.57 1011.69 1012.56 1013.47 1014.03 1014.57 1015.16 1015.84 1016.47 1016.62 1017.01 1017.53 1018.45 1019.32 1019.78 1020.06 1020.58 1020.90 1021.26 1021.88 1022.31 1022.53 1022.57 1022.92 1023.54 1024.10 1024.77 1025.63 1026.20 1026.87 1026.83 1026.34 1025.64 1025.04 1024.85 1024.54 1024.45 1024.42 1024.68
1006.43 1007.18 1007.88 1008.51 1009.45 1010.34 1011.52 1012.55 1013.13 1013.45 1014.14 1014.91 1015.56 1016.04 1016.70 1017.28 1017.91 1018.41 1018.76 1019.34 1019.91 1020.42 1020.76 1021.39 1021.75 1021.86 1022.30 1022.94 1023.65 1024.67 1025.32 1025.92 1025.85 1026.33 1026.37 1026.26 1025.77 1025.54 1025.30 1025.06 1024.58 1024.38 1024.38
1005.64 1006.13 1006.92 1007.71 1008.48 1009.40 1010.53 1011.52 1012.06 1012.54 1013.17 1014.16 1014.84 1015.66 1016.27 1016.72 1017.28 1017.50 1017.93 1018.60 1019.41 1020.17 1020.74 1021.16 1021.32 1021.60 1022.46 1023.76 1024.36 1024.96 1025.15 1025.78 1026.08 1026.09 1026.26 1026.03 1025.66 1025.49 1025.31 1025.00 1024.77 1024.52 1024.23
1005.16 1005.51 1005.97 1006.92 1007.78 1008.72 1009.70 1010.57 1011.48 1011.93 1012.42 1013.41 1014.43 1015.21 1016.11 1016.59 1016.74 1017.58 1017.91 1018.68 1019.39 1019.87 1020.38 1020.43 1021.03 1022.42 1023.49 1023.88 1024.98 1025.17 1025.43 1025.90 1025.84 1026.10 1026.07 1025.80 1025.22 1025.41 1025.14 1024.99 1024.89 1024.63 1024.16
1005.27 1005.59 1005.93 1006.32 1007.20 1007.99 1009.14 1010.16 1010.88 1011.24 1011.80 1012.73 1013.89 1014.93 1015.51 1016.30 1016.71 1017.32 1017.78 1018.46 1018.89 1019.21 1019.83 1020.71 1021.91 1022.24 1023.24 1023.84 1024.57 1024.87 1025.54 1025.92 1026.05 1026.03 1025.67 1025.37 1025.11 1025.20 1025.02 1024.81 1024.73 1024.59 1024.22
1005.24 1005.68 1006.14 1006.66 1007.21 1007.93 1008.90 1009.76 1010.47 1010.87 1011.36 1012.13 1013.13 1014.50 1015.14 1015.73 1016.28 1016.78 1017.48 1017.99 1018.30 1019.08 1019.74 1020.70 1021.32 1022.34 1023.43 1024.41 1024.95 1025.48 1025.51 1025.68 1025.74 1025.14 1024.83 1024.74 1024.73 1024.82 1024.66 1024.55 1024.46 1024.27 1024.06
1005.43 1005.69 1006.11 1006.70 1007.29 1007.95 1008.60 1009.38 1010.08 1010.64 1011.13 1011.88 1012.84 1013.96 1014.78 1015.42 1015.95 1016.63 1017.36 1017.83 1018.52 1019.53 1020.76 1021.16 1021.88 1022.66 1022.65 1023.95 1024.64 1024.98 1025.20 1024.84 1024.43 1024.36 1024.22 1024.20 1024.21 1024.18 1024.27 1024.29 1024.05 1023.84 1023.70
1005.51 1005.91 1006.32 1006.69 1007.23 1007.90 1008.60 1009.34 1010.22 1010.80 1011.38 1012.27 1013.49 1014.35 1014.94 1015.61 1016.36 1017.17 1017.90 1018.73 1019.43 1020.08 1021.02 1021.37 1022.13 1022.90 1023.84 1024.15 1024.24 1024.49 1024.16 1023.60 1023.71 1023.53 1023.42 1023.52 1023.68 1023.60 1023.52 1023.57 1023.43 1023.32 1023.15
1005.93 1006.06 1006.50 1007.00 1007.77 1008.46 1009.24 1010.22 1011.11 1011.93 1012.74 1013.44 1014.22 1015.09 1015.75 1016.35 1017.03 1017.66 1018.29 1018.92 1019.52 1020.26 1021.05 1022.10 1022.53 1023.00 1023.67 1024.37 1024.15 1023.78 1023.37 1022.99 1022.80 1022.83 1022.93 1022.95 1022.86 1022.95 1022.91 1022.89 1022.80 1022.81 1022.69
1006.52 1006.64 1007.01 1007.45 1008.09 1009.01 1009.94 1011.18 1012.24 1012.91 1013.52 1014.19 1014.95 1015.78 1016.48 1017.05 1017.62 1018.16 1018.77 1019.35 1019.90 1020.73 1021.48 1022.16 1022.66 1023.39 1023.67 1023.95 1023.98 1023.65 1023.48 1022.55 1022.25 1022.23 1022.24 1022.20 1022.14 1022.49 1022.56 1022.57 1022.32 1022.37 1022.20
1007.55 1007.80 1008.05 1008.39 1009.25 1010.00 1010.84 1011.69 1012.41 1013.33 1014.15 1014.69 1015.52 1016.49 1017.04 1017.69 1018.21 1018.74 1019.26 1019.74 1020.57 1021.20 1021.92 1022.44 1022.68 1022.98 1023.28 1023.34 1023.61 1023.75 1023.25 1022.56 1021.82 1021.51 1021.43 1021.33 1021.69 1022.14 1022.58 1022.52 1022.54 1022.63 1022.18
1008.78 1009.10 1009.46 1009.72 1010.29 1011.00 1011.62 1012.26 1013.06 1013.73 1014.38 1015.16 1016.11 1016.71 1017.20 1017.82 1018.45 1019.19 1019.96 1020.66 1021.11 1021.71 1022.03 1022.41 1022.68 1022.74 1022.79 1023.04 1023.10 1023.19 1023.09 1022.17 1021.45 1021.02 1020.74 1020.58 1020.57 1020.85 1021.41 1021.64 1021.86 1022.13 1022.24
1009.88 1010.24 1010.59 1010.94 1011.41 1011.95 1012.53 1013.16 1013.80 1014.49 1015.18 1015.91 1016.60 1017.34 1017.99 1018.76 1019.39 1019.91 1020.35 1020.84 1021.27 1021.69 1022.01 1022.14 1022.23 1022.07 1021.67 1022.08 1022.60 1022.87 1022.45 1021.60 1020.92 1020.49 1020.25 1020.04 1019.82 1019.78 1019.91 1020.33 1020.28 1020.22 1020.38
1010.94 1011.37 1011.71 1011.98 1012.35 1012.75 1013.25 1013.81 1014.59 1015.32 1016.06 1016.76 1017.43 1017.98 1018.48 1019.07 1019.70 1020.20 1020.68 1020.99 1021.27 1021.49 1021.69 1021.33 1021.38 1021.42 1021.44 1021.73 1022.22 1022.46 1021.71 1020.93 1020.32 1019.92 1019.58 1019.28 1019.02 1018.90 1019.12 1019.37 1019.29 1019.09 1019.22
1011.79 1012.18 1012.58 1012.87 1013.12 1013.51 1013.90 1014.40 1015.14 1015.81 1016.46 1017.20 1017.92 1018.47 1018.88 1019.38 1019.91 1020.34 1020.56 1020.46 1020.66 1020.88 1021.08 1021.16 1021.25 1021.36 1021.48 1021.56 1021.73 1022.01 1021.52 1020.73 1020.01 1019.49 1018.94 1018.60 1018.41 1018.36 1018.48 1018.46 1018.54 1018.42 1018.16
1012.28 1012.83 1013.03 1013.34 1013.80 1014.28 1014.73 1015.20 1015.96 1016.60 1017.39 1018.05 1018.69 1019.19 1019.55 1019.56 1019.80 1020.10 1020.42 1020.59 1020.68 1020.92 1021.12 1021.34 1021.33 1021.35 1021.36 1021.46 1021.71 1021.93 1021.69 1020.96 1020.14 1019.43 1018.59 1018.06 1017.85 1017.59 1017.59 1017.90 1017.81 1017.43 1017.45
1012.57 1013.03 1013.42 1013.97 1014.55 1014.95 1015.33 1015.93 1016.69 1017.44 1018.05 1018.65 1019.20 1019.45 1019.82 1020.12 1020.28 1020.42 1020.61 1020.71 1020.77 1020.97 1021.14 1021.40 1021.45 1021.36 1021.42 1021.54 1021.65 1021.74 1021.62 1021.25 1020.47 1019.39 1018.60 1018.03 1017.69 1017.57 1017.12 1016.82 1016.91 1016.82 1016.93
1012.69 1013.31 1013.90 1014.59 1015.34 1015.83 1016.29 1016.79 1017.69 1018.22 1018.75 1019.14 1019.55 1020.04 1020.39 1020.57 1020.72 1020.65 1020.86 1020.93 1021.17 1021.43 1021.61 1021.70 1021.68 1021.50 1021.68 1021.59 1021.58 1021.61 1021.52 1021.06 1020.33 1019.38 1018.39 1017.75 1017.18 1016.81 1016.44 1016.06 1015.97 1016.04 1015.98
1013.08 1013.83 1014.66 1015.56 1016.47 1017.18 1017.55 1018.02 1018.56 1018.94 1019.29 1019.72 1020.19 1020.52 1020.88 1020.85 1021.17 1021.28 1021.60 1021.70 1022.05 1022.25 1022.21 1022.15 1022.18 1022.14 1022.08 1021.90 1022.25 1022.11 1021.32 1020.58 1019.81 1018.62 1017.42 1016.82 1016.43 1015.79 1015.38 1015.04 1014.72 1014.75 1014.80
1013.72 1014.48 1015.25 1016.20 1017.21 1018.05 1018.60 1019.04 1019.24 1019.46 1019.91 1020.43 1020.87 1021.14 1021.48 1021.66 1021.69 1022.11 1022.76 1023.08 1023.30 1023.77 1023.33 1022.96 1022.96 1022.93 1022.81 1022.90 1023.35 1022.59 1021.59 1020.68 1019.60 1018.11 1016.95 1015.88 1015.04 1014.14 1013.67 1013.47 1013.60 1013.60 1013.79
1014.06 1015.15 1016.20 1017.22 1018.33 1019.06 1019.71 1020.04 1020.13 1020.24 1020.53 1020.97 1021.50 1022.12 1022.12 1022.34 1022.40 1022.57 1022.92 1024.01 1024.22 1024.21 1024.01 1024.16 1024.10 1023.76 1023.69 1023.59 1022.98 1022.17 1021.40 1020.21 1018.95 1017.20 1016.08 1015.16 1014.36 1013.69 1012.99 1012.42 1012.37 1012.71 1012.96
Thickness
5644 5641 5637 5634 5631 5629 5624 5621 5618 5614 5609 5607 5607 5604 5604 5602 5604 5604 5597 5596 5593 5588 5587 5584 5581 5577 5576 5571 5570 5564 5558 5553 5546 5544 5545 5538 5529 5524 5519 5512 5508 5503 5497
5647 5643 5639 5637 5636 5635 5631 5628 5627 5624 5619 5620 5617 5612 5609 5606 5604 5600 5600 5596 5590 5588 5587 5584 5581 5576 5571 5569 5563 5557 5553 5547 5538 5535 5530 5535 5529 5520 5510 5504 5499 5493 5485
5656 5650 5644 5641 5639 5639 5636 5632 5630 5628 5624 5622 5616 5612 5609 5606 5606 5603 5598 5594 5589 5587 5585 5582 5576 5569 5568 5562 5555 5550 5546 5541 5530 5521 5519 5524 5522 5513 5510 5496 5488 5480 5472
5666 5664 5655 5649 5645 5642 5638 5635 5632 5629 5626 5623 5621 5614 5613 5609 5610 5606 5598 5593 5585 5583 5582 5577 5571 5566 5561 5557 5549 5544 5538 5531 5523 5510 5505 5499 5497 5499 5499 5490 5479 5468 5459
5673 5670 5666 5659 5654 5648 5643 5638 5635 5632 5628 5624 5620 5616 5615 5616 5614 5601 5593 5588 5584 5580 5575 5570 5566 5560 5556 5550 5543 5536 5529 5518 5505 5496 5495 5490 5487 5482 5478 5478 5472 5459 5450
5678 5677 5675 5668 5663 5656 5650 5643 5639 5636 5632 5627 5620 5619 5614 5610 5602 5594 5591 5589 5584 5578 5574 5568 5561 5555 5550 5543 5535 5528 5519 5507 5497 5484 5479 5478 5481 5477 5471 5465 5457 5449 5437
5684 5679 5674 5673 5668 5662 5654 5647 5642 5639 5635 5630 5624 5620 5614 5609 5602 5598 5594 5588 5583 5577 5572 5564 5558 5552 5544 5533 5525 5515 5504 5493 5489 5478 5473 5467 5465 5459 5454 5447 5442 5434 5425
5686 5684 5679 5675 5671 5664 5657 5651 5647 5643 5639 5632 5626 5619 5614 5610 5604 5600 5594 5588 5580 5571 5564 5558 5551 5544 5532 5519 5510 5503 5494 5481 5474 5469 5460 5456 5452 5444 5438 5432 5425 5417 5411
5686 5686 5684 5679 5673 5667 5660 5655 5648 5645 5642 5634 5626 5618 5610 5605 5603 5593 5588 5579 5571 5565 5557 5553 5544 5531 5517 5509 5497 5491 5484 5473 5466 5455 5448 5442 5440 5430 5423 5416 5408 5400 5394
5681 5681 5681 5681 5675 5670 5662 5655 5650 5647 5642 5635 5626 5616 5610 5602 5597 5588 5582 5574 5566 5560 5552 5542 5530 5520 5509 5500 5490 5485 5471 5460 5450 5442 5437 5431 5425 5416 5409 5401 5393 5384 5377
5677 5676 5675 5674 5671 5667 5660 5653 5648 5645 5641 5635 5627 5615 5608 5601 5594 5587 5578 5570 5563 5554 5545 5533 5523 5510 5498 5486 5477 5467 5459 5448 5440 5438 5431 5423 5413 5403 5396 5388 5378 5370 5361
5674 5674 5672 5669 5665 5661 5657 5651 5647 5642 5638 5631 5623 5613 5605 5597 5590 5581 5572 5564 5554 5542 5527 5517 5513 5500 5495 5478 5466 5457 5448 5443 5438 5431 5422 5412 5403 5394 5382 5372 5364 5356 5346
5670 5668 5665 5663 5661 5657 5651 5646 5639 5635 5630 5621 5610 5602 5595 5587 5578 5567 5558 5548 5540 5531 5519 5510 5501 5488 5476 5465 5455 5448 5445 5441 5430 5422 5414 5404 5392 5383 5373 5362 5354 5343 5332
5658 5661 5658 5654 5649 5644 5638 5630 5622 5616 5609 5602 5594 5585 5578 5571 5563 5554 5546 5537 5529 5520 5510 5497 5489 5479 5465 5451 5445 5440 5436 5430 5423 5413 5402 5393 5383 5373 5362 5352 5342 5329 5318
5648 5649 5647 5644 5640 5633 5624 5613 5603 5599 5595 5587 5580 5571 5564 5557 5549 5541 5532 5523 5515 5504 5494 5482 5471 5458 5449 5439 5432 5428 5420 5419 5413 5403 5393 5383 5373 5360 5348 5338 5329 5315 5305
5634 5634 5633 5630 5622 5616 5609 5602 5595 5587 5579 5573 5565 5556 5549 5541 5534 5526 5518 5510 5497 5487 5474 5464 5456 5447 5439 5431 5423 5413 5409 5406 5401 5393 5382 5372 5361 5347 5332 5322 5311 5298 5290
5618 5616 5613 5611 5607 5600 5595 5589 5582 5576 5569 5561 5550 5544 5538 5530 5521 5511 5499 5488 5479 5468 5460 5451 5443 5435 5427 5419 5411 5403 5397 5394 5387 5379 5370 5361 5350 5336 5323 5309 5297 5285 5274
5603 5600 5596 5593 5589 5585 5580 5574 5569 5562 5554 5546 5538 5528 5520 5509 5500 5492 5484 5475 5465 5456 5448 5440 5432 5426 5422 5410 5399 5389 5384 5381 5375 5367 5357 5347 5338 5325 5310 5299 5288 5279 5269
5587 5583 5579 5577 5574 5571 5566 5561 5553 5544 5536 5528 5520 5512 5505 5496 5486 5478 5469 5460 5452 5443 5434 5431 5423 5416 5408 5396 5385 5375 5373 5369 5363 5354 5345 5336 5326 5313 5297 5284 5273 5269 5260
5573 5568 5564 5562 5559 5555 5552 5546 5539 5531 5524 5515 5506 5498 5491 5482 5472 5463 5456 5451 5442 5434 5425 5417 5409 5401 5393 5384 5371 5359 5353 5351 5348 5343 5333 5321 5310 5300 5279 5269 5260 5253 5251
5561 5555 5553 5550 5545 5540 5536 5530 5522 5515 5506 5497 5488 5480 5472 5468 5461 5453 5443 5435 5428 5419 5411 5402 5393 5386 5378 5369 5356 5341 5332 5327 5325 5319 5315 5306 5291 5282 5272 5254 5247 5244 5236
5551 5546 5542 5536 5531 5527 5523 5515 5506 5497 5489 5481 5472 5465 5458 5450 5443 5435 5426 5419 5412 5404 5395 5385 5377 5370 5361 5351 5340 5326 5312 5301 5296 5296 5292 5283 5272 5260 5254 5246 5237 5230 5222
5543 5536 5530 5523 5516 5511 5506 5498 5487 5480 5472 5464 5456 5447 5439 5431 5423 5417 5409 5403 5394 5386 5377 5368 5360 5354 5342 5333 5322 5310 5298 5288 5279 5272 5268 5260 5254 5245 5238 5233 5227 5221 5216
5531 5523 5514 5505 5496 5489 5484 5476 5468 5462 5455 5447 5438 5430 5420 5414 5405 5398 5389 5382 5372 5363 5357 5350 5340 5331 5321 5311 5297 5286 5281 5274 5266 5260 5258 5249 5241 5235 5230 5226 5224 5219 5213
5515 5509 5501 5492 5481 5471 5463 5456 5451 5446 5438 5428 5418 5410 5400 5392 5386 5376 5364 5354 5346 5335 5331 5326 5317 5306 5297 5284 5268 5261 5257 5249 5245 5244 5241 5239 5234 5235 5232 5227 5220 5216 5210
5504 5494 5483 5472 5459 5450 5441 5436 5432 5426 5419 5409 5398 5385 5379 5370 5363 5356 5349 5330 5319 5312 5306 5297 5289 5280 5269 5259 5251 5243 5235 5231 5227 5231 5229 5226 5223 5222 5223 5224 5219 5211 5204